Weather Roundup
Issued by NWS Chicago, IL

Home | Current Version | Previous Version | Text Only | Print | Product List | Glossary On
Versions: 1 2 3 4 5 6 7 8 9 10 11 12 13 14 15 16 17 18 19 20 21 22 23 24 25 26 27 28 29 30 31 32 33 34 35 36 37 38 39 40 41 42 43 44 45 46 47 48 49 50
000
NZUS59 KLOT 312110
HRRLOT

CHICAGO AREA WEATHER ROUNDUP
NATIONAL WEATHER SERVICE CHICAGO/ROMEOVILLE IL
400 PM CDT FRI OCT 31 2014

NOTE: "FAIR" INDICATES FEW OR NO CLOUDS BELOW 12,000 FEET WITH NO
SIGNIFICANT WEATHER AND/OR OBSTRUCTIONS TO VISIBILITY.

* THESE STATIONS ARE NOT UNDER NWS QUALITY CONTROL. THEY ALSO MAY NOT
  REPORT WEATHER SUCH AS PRECIPITATION OR FOG.

ILZ005-006-012>014-019>023-312200-
NORTHEAST ILLINOIS

CITY           SKY/WX    TMP DP  RH WIND       PRES   REMARKS
OHARE          CLOUDY    39  21  48 N29G37    30.22R
MIDWAY         FLURRIES  40  26  57 N32G44    30.21R
AURORA         PTSUNNY   41  19  41 N33G43    30.24R
LANSING*       CLOUDY    39  32  77 N24G40    30.17R
JOLIET*        CLOUDY    39  22  50 N20G28    30.23R
WAUKEGAN       CLOUDY    37  21  52 N21G35    30.24R
DUPAGE AIRPORT CLOUDY    40  20  44 N31G40    30.23R
WHEELING       CLOUDY    40  21  46 N24G39    30.25R
KANKAKEE*      CLOUDY    40  27  58 NW22G37   30.19R
MORRIS*        CLOUDY    41  24  50 N16G29    30.23R
LEWIS AIRPORT* CLOUDY    39  21  49 N26G39    30.22R
NORTHERLY IS     N/A     37  34  89 N33         N/A
$$

WIZ051-052-058>065-066-070>072-312200-
SOUTHEAST WISCONSIN

CITY           SKY/WX    TMP DP  RH WIND       PRES   REMARKS
MILWAUKEE      CLOUDY    37  21  52 N26G39    30.28R
KENOSHA*       CLOUDY    38  21  50 N23G30    30.26R
RACINE*        CLOUDY    38  22  52 N26G41    30.27R
BURLINGTON     CLOUDY    37  18  45 N22G30    30.28R
WAUKESHA       PTSUNNY   36  19  51 N18G29    30.28S
WEST BEND      CLOUDY    36  19  51 N21G32    30.30R
$$

INZ001>003-010>013-019-020-312200-
NORTHWEST INDIANA

CITY           SKY/WX    TMP DP  RH WIND       PRES   REMARKS
GARY*          RAIN      41  32  70 N37G67    30.18R
MICHIGAN CITY* NOT AVBL
RENSSELAER*    NOT AVBL
VALPARAISO     FLURRIES  38  35  89 N22G44    30.10R
$$

LMZ740>746-312200-
SOUTHERN LAKE MICHIGAN

STATION/POSITION TIME  SKY/WX   TEMP WIND        PRES    VSBY
                                AIR  DIR/SP/G
                 (UTC)          (F)  (DEG/KT/KT) (MB)    (MI)
HARRISON CRIB    2000            39  350/ 47/ 57   N/A
BURNHAM HARBOR   2100            40  360/ 25/ 36   N/A
CALUMET HARBOR   2100            39  340/ 29/ 40 1021.1R
BURNS HARBOR     NOT AVBL
MICHIGAN CITY    2100            41  340/ 44/ 53   N/A
$$

ABBREVIATIONS USED IN REMARKS
   TC - TEMPERATURE IN CELSIUS
  WCI - WIND CHILL INDEX
   HX - HEAT INDEX
  VSB - VISIBILITY
$$



USA.gov is the U.S. government's official web portal to all federal, state and local government web resources and services.